SUNNYSIDE Weather Reports


time (UTC)temp
C
wind
direction
speed
KPH
gust
KPH
rain 1hr
cm
rain 24hr
cm
rain mn
cm
humidity
%
barometer
mb
20260831232056 20 232 24.1 37.0 0.00 4.95 3.56 52 973.3
20260831231557 20 229 24.1 51.5 0.00 4.95 3.56 53 973.2
20260831231056 20 269 32.2 53.1 0.00 4.95 3.56 52 973.2
20260831230554 21 234 32.2 53.1 0.00 4.95 3.56 52 973.1
20260831230108 21 218 32.2 46.7 0.00 4.95 3.56 51 972.9
20260831225557 21 240 29.0 49.9 0.00 4.95 3.56 50 972.8
20260831225054 21 229 32.2 49.9 0.00 4.95 3.56 50 972.7
20260831224554 21 226 32.2 53.1 0.00 4.95 3.56 50 972.5
20260831224055 21 218 30.6 53.1 0.00 4.95 3.56 50 972.4
20260831223558 21 239 32.2 49.9 0.00 4.95 3.56 50 972.4
20260831223055 21 245 27.4 45.1 0.00 4.95 3.56 50 972.3
20260831222555 21 215 22.5 45.1 0.00 4.95 3.56 50 972.4
20260831222055 22 292 17.7 61.2 0.00 4.95 3.56 49 972.3
20260831221602 22 214 40.2 61.2 0.00 4.95 3.56 49 972.2
20260831221053 22 224 19.3 53.1 0.00 4.95 3.56 49 972.4
20260831220553 22 208 29.0 49.9 0.00 4.95 3.56 48 972.4
20260831215556 22 235 17.7 41.8 0.00 4.95 3.56 49 972.2
20260831215053 22 219 20.9 41.8 0.00 4.95 3.56 49 972.1
20260831214553 22 227 16.1 49.9 0.00 4.95 3.56 49 971.9
20260831214053 21 249 24.1 49.9 0.00 4.95 3.56 49 972.1
20260831213553 22 221 14.5 45.1 0.00 4.95 3.56 48 972.3
20260831213058 22 223 22.5 45.1 0.00 4.95 3.56 46 972.4
20260831212552 22 252 12.9 49.9 0.00 4.95 3.56 46 972.4
20260831212056 22 223 20.9 35.4 0.00 4.95 3.56 45 972.3
20260831211602 22 227 8.0 19.3 0.00 4.95 3.56 47 972.0
20260831211051 22 227 9.7 19.3 0.00 4.95 3.56 46 971.9
20260831210551 22 232 6.4 16.1 0.00 4.95 3.56 46 971.8
20260831210050 22 221 8.0 16.1 0.00 4.95 3.56 46 971.8
20260831205550 22 238 4.8 24.1 0.00 4.95 3.56 45 971.9
20260831205050 22 215 8.0 24.1 0.00 4.95 3.56 45 972.0
20260831204554 22 206 6.4 22.5 0.00 4.95 3.56 45 972.1
20260831204050 22 230 11.3 22.5 0.00 4.95 3.56 45 972.1
20260831203550 22 222 11.3 40.2 0.00 4.95 3.56 44 972.2
20260831203050 22 221 14.5 29.0 0.00 4.95 3.56 44 972.4
20260831202551 22 229 11.3 27.4 0.00 4.95 3.56 43 972.4
20260831202048 22 192 12.9 32.2 0.00 4.95 3.56 43 972.2
20260831201548 22 198 12.9 32.2 0.00 4.95 3.56 42 972.2
20260831201049 22 233 11.3 24.1 0.00 4.95 3.56 42 972.2
20260831200547 22 198 9.7 17.7 0.00 4.95 3.56 43 972.4
20260831200053 22 182 8.0 16.1 0.00 4.95 3.56 43 972.6
20260831195544 22 197 4.8 25.7 0.00 4.95 3.56 44 972.7
20260831195044 22 220 12.9 25.7 0.00 4.95 3.56 44 972.8
20260831194544 22 148 8.0 30.6 0.00 4.95 3.56 44 972.8
20260831194043 21 111 12.9 30.6 0.00 4.95 3.56 44 973.0
20260831193543 21 234 6.4 29.0 0.00 4.95 3.56 44 973.1
20260831193045 21 190 4.8 12.9 0.00 4.95 3.56 44 973.1
20260831192542 21 243 3.2 20.9 0.00 4.95 3.56 43 973.2
20260831192045 21 209 6.4 20.9 0.00 4.95 3.56 42 973.3
20260831191542 22 196 8.0 20.9 0.00 4.95 3.56 42 973.4
20260831191042 22 204 8.0 20.9 0.00 4.95 3.56 41 973.4
20260831190542 22 182 9.7 20.9 0.00 4.95 3.56 40 973.6
20260831190100 22 200 9.7 17.7 0.00 4.95 3.56 40 973.5
20260831185542 22 232 8.0 20.9 0.00 4.95 3.56 40 973.7
20260831185041 22 198 12.9 30.6 0.00 4.95 3.56 39 973.6
20260831184542 22 238 14.5 27.4 0.00 4.95 3.56 39 973.8
20260831184041 22 227 11.3 25.7 0.00 4.95 3.56 39 974.1
20260831183541 22 190 8.0 32.2 0.00 4.95 3.56 40 973.8
20260831183041 22 186 14.5 32.2 0.00 4.95 3.56 38 974.0
20260831182541 22 218 16.1 30.6 0.00 4.95 3.56 38 974.1
20260831182040 22 209 8.0 24.1 0.00 4.95 3.56 41 974.1
20260831181540 22 190 11.3 30.6 0.00 4.95 3.56 41 974.2
20260831181040 23 191 14.5 30.6 0.00 4.95 3.56 40 974.2
20260831180538 22 186 16.1 35.4 0.00 4.95 3.56 41 974.4
20260831180046 22 186 12.9 35.4 0.00 4.95 3.56 42 974.4
20260831175537 22 199 16.1 35.4 0.00 4.95 3.56 42 974.5
20260831175037 22 205 9.7 29.0 0.00 4.95 3.56 43 974.7
20260831174540 22 182 14.5 24.1 0.00 4.95 3.56 41 974.9
20260831174036 22 200 11.3 32.2 0.00 4.95 3.56 43 975.1
20260831173534 22 193 14.5 32.2 0.00 4.95 3.56 43 975.1
20260831173035 22 197 12.9 27.4 0.00 4.95 3.56 45 975.1
20260831172535 22 244 12.9 30.6 0.00 4.95 3.56 45 975.3
20260831172034 22 235 14.5 30.6 0.00 4.95 3.56 48 975.4
20260831171534 22 208 8.0 27.4 0.00 4.95 3.56 49 975.4
20260831171033 22 187 8.0 27.4 0.00 4.95 3.56 48 975.5
20260831170532 22 189 9.7 25.7 0.00 4.95 3.56 49 975.5
20260831170031 22 186 11.3 25.7 0.00 4.95 3.56 49 975.6
20260831165535 22 76 9.7 25.7 0.00 4.95 3.56 49 975.7
20260831165031 22 222 9.7 25.7 0.00 4.95 3.56 49 975.7
20260831164545 22 182 9.7 24.1 0.00 4.95 3.56 49 975.7
20260831164030 22 177 8.0 20.9 0.00 4.95 3.56 50 975.8
20260831163529 21 180 11.3 30.6 0.00 4.95 3.56 51 976.0
20260831163028 21 144 16.1 32.2 0.00 4.95 3.56 50 976.0
20260831162527 21 170 11.3 24.1 0.00 4.95 3.56 51 976.1
20260831162026 21 200 9.7 24.1 0.00 4.95 3.56 50 976.2
20260831161525 21 360 11.3 24.1 0.00 4.95 3.56 51 976.1
20260831161025 21 196 11.3 20.9 0.00 4.95 3.56 50 976.3
20260831160524 21 236 8.0 20.9 0.00 4.95 3.56 48 976.3
20260831160023 21 215 9.7 25.7 0.00 4.95 3.56 50 976.3
20260831155524 21 209 4.8 17.7 0.00 4.95 3.56 53 976.2
20260831155021 21 190 6.4 17.7 0.00 4.95 3.56 52 976.3
20260831154519 21 198 8.0 17.7 0.00 4.95 3.56 52 976.3
20260831154020 21 188 6.4 14.5 0.00 4.95 3.56 50 976.2
20260831153517 21 177 4.8 12.9 0.00 4.95 3.56 45 976.3
20260831153014 21 209 6.4 12.9 0.00 4.95 3.56 44 976.3
20260831152515 20 178 4.8 16.1 0.00 4.95 3.56 47 976.4
20260831152012 20 194 9.7 17.7 0.00 4.95 3.56 46 976.6
20260831151512 20 237 6.4 14.5 0.00 4.95 3.56 47 976.5
20260831151009 20 171 6.4 16.1 0.00 4.95 3.56 47 976.5
20260831150510 20 194 6.4 19.3 0.00 4.95 3.56 50 976.8
20260831150009 20 215 6.4 19.3 0.00 4.95 3.56 50 976.7
20260831145504 20 221 6.4 19.3 0.00 4.95 3.56 52 976.7
20260831145002 19 220 11.3 19.3 0.00 4.95 3.56 52 976.7
20260831144505 19 240 8.0 24.1 0.00 4.95 3.56 54 976.5
20260831144100 18 234 12.9 24.1 0.00 4.95 3.56 54 976.6
20260831143559 18 224 11.3 22.5 0.00 4.95 3.56 55 976.6
20260831143103 18 228 4.8 16.1 0.00 4.95 3.56 56 976.6
20260831142556 18 226 6.4 20.9 0.00 4.95 3.56 57 976.5
20260831142058 18 230 9.7 20.9 0.00 4.95 3.56 57 976.5
20260831141603 17 218 3.2 11.3 0.00 4.95 3.56 58 976.5
20260831141053 17 231 6.4 12.9 0.00 4.95 3.56 59 976.7
20260831140550 17 231 4.8 12.9 0.00 4.95 3.56 61 976.7
20260831140052 17 233 4.8 12.9 0.00 4.95 3.56 62 976.6
20260831135551 16 220 3.2 11.3 0.00 4.95 3.56 62 976.6
20260831135050 16 225 4.8 11.3 0.00 4.95 3.56 63 976.4
20260831134554 16 222 1.6 8.0 0.00 4.95 3.56 63 976.5
20260831134049 16 229 1.6 8.0 0.00 4.95 3.56 64 976.4
20260831133549 16 229 3.2 8.0 0.00 4.95 3.56 63 976.5
20260831133049 16 210 4.8 8.0 0.00 4.95 3.56 64 976.4
20260831132549 16 217 3.2 6.4 0.00 4.95 3.56 65 976.3
20260831132049 16 225 1.6 6.4 0.00 4.95 3.56 65 976.4
20260831131552 15 225 1.6 9.7 0.00 4.95 3.56 65 976.4
20260831131048 15 225 3.2 9.7 0.00 4.95 3.56 65 976.4
20260831130548 15 227 4.8 6.4 0.00 4.95 3.56 65 976.4
20260831130049 15 229 1.6 6.4 0.00 4.95 3.56 66 976.3
20260831125549 15 223 1.6 8.0 0.00 4.95 3.56 66 976.3
20260831125048 15 224 3.2 8.0 0.00 4.95 3.56 66 976.3
20260831124549 15 223 0.0 8.0 0.00 4.95 3.56 67 976.3
20260831124048 15 223 0.0 8.0 0.00 4.95 3.56 67 976.2
20260831123547 15 219 3.2 8.0 0.00 4.95 3.56 67 976.2
20260831123047 15 221 1.6 8.0 0.00 4.95 3.56 67 976.2
20260831122549 15 207 3.2 14.5 0.00 4.95 3.56 67 976.2
20260831122047 15 228 6.4 14.5 0.00 4.95 3.56 68 976.2
20260831121547 15 222 3.2 11.3 0.00 4.95 3.56 68 976.0
20260831121046 15 234 4.8 11.3 0.00 4.95 3.56 68 975.9
20260831120546 15 217 3.2 14.5 0.00 4.95 3.56 68 975.9
20260831120045 15 229 4.8 16.1 0.00 4.95 3.56 68 975.9
20260831115544 15 228 9.7 16.1 0.00 4.95 3.56 67 975.8
20260831115044 15 233 11.3 19.3 0.00 4.95 3.56 67 975.7
20260831114544 15 253 12.9 20.9 0.00 4.95 3.56 68 975.6
20260831114043 16 244 11.3 22.5 0.00 4.95 3.56 68 975.6
20260831113542 16 238 14.5 22.5 0.00 4.95 3.56 68 975.5
20260831113041 16 360 12.9 22.5 0.00 4.95 3.56 68 975.5
20260831112545 16 240 14.5 22.5 0.00 4.95 3.56 68 975.4
20260831112039 16 232 9.7 19.3 0.00 4.95 3.56 68 975.6
20260831111551 16 360 11.3 17.7 0.00 4.95 3.56 68 975.5
20260831111037 16 360 8.0 16.1 0.00 4.95 3.56 68 975.5
20260831110538 16 229 8.0 16.1 0.00 4.95 3.56 68 975.4
20260831110045 16 227 9.7 17.7 0.00 4.95 3.56 69 975.4
20260831105536 16 225 9.7 19.3 0.00 4.95 3.56 68 975.4
20260831105035 16 235 11.3 19.3 0.00 4.95 3.56 68 975.3
20260831104549 16 244 9.7 12.9 0.00 4.95 3.56 68 975.2
20260831104036 16 233 8.0 16.1 0.00 4.95 3.56 68 975.1
20260831103535 16 240 8.0 16.1 0.00 4.95 3.56 68 975.1
20260831103036 17 226 8.0 17.7 0.00 4.95 3.56 68 975.1
20260831102532 17 229 9.7 19.3 0.00 4.95 3.56 69 975.1
20260831102032 17 234 12.9 19.3 0.00 4.95 3.56 69 975.0
20260831101534 17 254 12.9 19.3 0.00 4.95 3.56 69 975.0
20260831101030 17 239 9.7 16.1 0.00 4.95 3.56 69 974.9
20260831100529 17 225 6.4 16.1 0.00 4.95 3.56 69 975.0
20260831100028 17 234 4.8 12.9 0.00 4.95 3.56 69 975.1
20260831095527 17 228 8.0 12.9 0.00 4.95 3.56 69 975.0
20260831095030 17 232 8.0 12.9 0.00 4.95 3.56 69 974.9
20260831094530 17 230 6.4 12.9 0.00 4.95 3.56 69 974.9
20260831094026 17 221 4.8 12.9 0.00 4.95 3.56 69 974.8
20260831093526 17 234 8.0 16.1 0.00 4.95 3.56 69 974.8
20260831093037 17 241 6.4 14.5 0.00 4.95 3.56 69 974.7
20260831092524 17 231 8.0 12.9 0.00 4.95 3.56 69 974.8
20260831092028 17 233 4.8 11.3 0.00 4.95 3.56 69 974.9
20260831091524 17 240 1.6 11.3 0.00 4.95 3.56 69 974.9
20260831091024 17 227 3.2 12.9 0.00 4.95 3.56 69 975.0
20260831090523 17 232 3.2 12.9 0.00 4.95 3.56 69 975.0
20260831090026 17 230 6.4 16.1 0.00 4.95 3.56 69 975.0
20260831085524 17 240 8.0 16.1 0.00 4.95 3.56 69 974.9
20260831085023 17 225 9.7 17.7 0.00 4.95 3.56 69 975.0
20260831084523 17 227 6.4 14.5 0.00 4.95 3.56 69 975.0
20260831084022 17 232 6.4 12.9 0.00 4.95 3.56 69 974.9
20260831083522 17 225 6.4 12.9 0.00 4.95 3.56 69 974.9
20260831083023 18 232 4.8 12.9 0.00 4.95 3.56 69 974.9
20260831082523 18 225 6.4 11.3 0.00 4.95 3.56 69 974.8
20260831082025 18 219 3.2 12.9 0.00 4.95 3.56 69 974.7
20260831081522 18 232 8.0 16.1 0.00 4.95 3.56 69 974.8
20260831081021 18 223 8.0 16.1 0.00 4.95 3.56 69 974.8
20260831080521 18 240 3.2 9.7 0.00 4.95 3.56 69 974.9
20260831080024 18 209 3.2 8.0 0.00 4.95 3.56 69 974.8
20260831075520 17 196 0.0 4.8 0.00 4.95 3.56 69 974.8
20260831075020 17 192 0.0 4.8 0.00 4.95 3.56 69 974.9
20260831074521 17 185 0.0 4.8 0.00 4.95 3.56 69 974.9
20260831074020 17 202 0.0 6.4 0.00 4.95 3.56 69 974.7
20260831073520 17 142 0.0 6.4 0.00 4.95 3.56 69 974.7
20260831073020 17 196 3.2 6.4 0.00 4.95 3.56 69 974.6
20260831072520 17 190 1.6 4.8 0.00 4.95 3.56 69 974.7
20260831072019 17 193 1.6 6.4 0.03 4.95 3.56 69 974.6
20260831071619 17 196 3.2 6.4 0.03 4.95 3.56 69 974.6
20260831071018 17 194 3.2 6.4 0.08 4.95 3.56 69 974.7
20260831070520 17 192 1.6 6.4 0.13 4.95 3.56 69 974.7
20260831070018 17 209 1.6 4.8 0.18 4.95 3.56 69 974.6
20260831065521 17 170 1.6 3.2 0.20 4.95 3.56 69 974.5
20260831065016 17 167 0.0 3.2 0.20 4.95 3.56 69 974.4
20260831064517 17 171 0.0 8.0 0.23 4.95 3.56 69 974.5
20260831064018 17 123 1.6 11.3 0.25 4.95 3.56 69 974.3
20260831063516 17 143 3.2 11.3 0.30 4.95 3.56 69 974.3
20260831063016 17 102 4.8 11.3 0.41 4.95 3.56 69 974.3
20260831062517 17 134 4.8 11.3 0.71 4.95 3.56 68 974.4
20260831062015 17 150 1.6 11.3 1.12 4.93 3.53 68 973.7
20260831061514 17 98 3.2 11.3 1.52 4.93 3.53 68 973.1
20260831061011 18 96 0.0 4.8 2.41 4.85 3.45 68 974.0
20260831060511 18 96 0.0 6.4 3.12 4.83 3.43 68 974.0
20260831060009 18 96 1.6 6.4 3.38 4.78 3.38 68 974.1
20260831055508 18 138 0.0 8.0 3.58 4.75 3.35 68 974.5
20260831055007 18 360 3.2 8.0 3.96 4.75 3.35 68 974.8
20260831054506 18 140 4.8 11.3 4.32 4.72 3.33 67 975.0
20260831054008 18 114 3.2 12.9 4.67 4.70 3.30 67 975.3
20260831053509 18 194 3.2 25.7 4.65 4.65 3.25 67 975.6
20260831053011 18 219 3.2 25.7 4.50 4.50 3.10 67 975.9
20260831052503 18 217 9.7 17.7 4.14 4.14 2.74 66 976.3
20260831052004 19 205 8.0 19.3 3.73 3.73 2.34 66 977.1
20260831051501 19 123 9.7 20.9 3.17 3.17 1.78 65 977.2
20260831051101 19 167 11.3 20.9 2.57 2.57 1.17 65 976.9
20260831050559 19 150 3.2 20.9 1.75 1.75 0.36 63 975.6
20260831050056 19 144 14.5 20.9 1.42 1.42 0.05 61 975.0
20260831045556 20 108 11.3 19.3 1.19 1.19 1.19 58 975.4
20260831045059 20 106 8.0 19.3 0.84 0.84 0.84 57 975.2
20260831044613 20 105 9.7 17.7 0.48 0.48 0.48 55 975.3
20260831044056 20 151 6.4 19.3 0.05 0.05 0.05 54 975.3
20260831043556 21 123 9.7 22.5 0.00 0.00 0.00 54 975.2
20260831043054 21 126 11.3 22.5 0.00 0.00 0.00 53 975.3
20260831042557 21 121 11.3 19.3 0.00 0.00 0.00 53 975.2
20260831042057 21 163 12.9 19.3 0.00 0.00 0.00 53 975.4
20260831041600 21 360 11.3 19.3 0.00 0.00 0.00 53 975.4
20260831041053 21 101 11.3 20.9 0.00 0.00 0.00 53 975.4
20260831040552 21 91 11.3 20.9 0.00 0.00 0.00 53 975.6
20260831040050 21 158 11.3 20.9 0.00 0.00 0.00 53 975.9
20260831035550 21 112 9.7 19.3 0.00 0.00 0.00 53 976.0
20260831035050 21 105 11.3 24.1 0.00 0.00 0.00 52 976.0
20260831034555 21 183 14.5 24.1 0.00 0.00 0.00 52 976.1
20260831034050 21 140 12.9 25.7 0.00 0.00 0.00 52 976.2
20260831033550 21 127 12.9 25.7 0.00 0.00 0.00 52 976.2
20260831033053 21 100 16.1 30.6 0.00 0.00 0.00 52 976.2
20260831032550 21 113 16.1 30.6 0.00 0.00 0.00 52 976.1
20260831032050 21 106 12.9 22.5 0.00 0.00 0.00 52 976.1
20260831031549 21 127 12.9 24.1 0.00 0.00 0.00 52 976.0
20260831031047 22 126 11.3 22.5 0.00 0.00 0.00 52 976.2
20260831030547 22 105 12.9 24.1 0.00 0.00 0.00 51 976.3
20260831030047 22 98 12.9 24.1 0.00 0.00 0.00 51 976.3
20260831025547 22 128 14.5 22.5 0.00 0.00 0.00 52 976.3
20260831025046 22 128 9.7 17.7 0.00 0.00 0.00 52 976.4
20260831024546 21 114 8.0 17.7 0.00 0.00 0.00 52 976.6
20260831024047 21 126 8.0 17.7 0.00 0.00 0.00 52 976.7
20260831023546 21 144 9.7 16.1 0.00 0.00 0.00 52 976.7
20260831023046 21 360 9.7 16.1 0.00 0.00 0.00 52 976.7
20260831022546 21 101 8.0 14.5 0.00 0.00 0.00 52 976.8
20260831022046 21 109 8.0 12.9 0.00 0.00 0.00 52 976.8
20260831021546 21 113 6.4 12.9 0.00 0.00 0.00 52 976.7
20260831021045 21 92 3.2 11.3 0.00 0.00 0.00 52 976.7
20260831020544 22 146 4.8 14.5 0.00 0.00 0.00 52 976.7
20260831020045 22 360 4.8 14.5 0.00 0.00 0.00 52 976.5
20260831015544 22 134 6.4 16.1 0.00 0.00 0.00 52 976.6
20260831015044 22 115 4.8 11.3 0.00 0.00 0.00 52 976.5
20260831014544 22 100 6.4 11.3 0.00 0.00 0.00 52 976.5
20260831014045 22 103 6.4 11.3 0.00 0.00 0.00 52 976.5
20260831013545 22 98 8.0 12.9 0.00 0.00 0.00 52 976.6
20260831013045 22 144 4.8 12.9 0.00 0.00 0.00 52 976.6
20260831012545 22 118 4.8 14.5 0.00 0.00 0.00 52 976.4
20260831012043 22 107 3.2 14.5 0.00 0.00 0.00 53 976.4
20260831011545 22 360 4.8 9.7 0.00 0.00 0.00 53 976.4
20260831011142 22 114 4.8 9.7 0.00 0.00 0.00 54 976.5
20260831010542 23 132 3.2 9.7 0.00 0.00 0.00 54 976.4
20260831010045 23 104 1.6 11.3 0.00 0.00 0.00 54 976.4
20260831005541 23 126 3.2 16.1 0.00 0.00 0.00 53 976.5
20260831005043 23 146 3.2 16.1 0.00 0.00 0.00 53 976.7
20260831004541 23 96 4.8 11.3 0.00 0.00 0.00 53 976.8
20260831004044 24 105 4.8 14.5 0.00 0.00 0.00 53 976.9
20260831003541 24 360 3.2 14.5 0.00 0.00 0.00 53 976.8
20260831003041 24 109 4.8 12.9 0.00 0.00 0.00 53 976.9
20260831002540 24 90 4.8 12.9 0.00 0.00 0.00 53 976.9
20260831002041 25 98 6.4 12.9 0.00 0.00 0.00 52 976.9
20260831001541 25 85 4.8 11.3 0.00 0.00 0.00 52 977.0
20260831001039 25 88 3.2 14.5 0.00 0.00 0.00 52 976.9
20260831000540 25 186 6.4 14.5 0.00 0.00 0.00 52 977.0
20260831000041 25 103 4.8 16.1 0.00 0.00 0.00 51 977.0
20260830235544 25 82 4.8 12.9 0.00 0.00 0.00 51 976.8
20260830235039 25 90 4.8 11.3 0.00 0.00 0.00 51 976.8
20260830234554 25 90 4.8 12.9 0.00 0.00 0.00 50 976.9
20260830234039 25 103 3.2 16.1 0.00 0.00 0.00 50 977.1
20260830233539 26 87 6.4 17.7 0.00 0.00 0.00 49 977.1